When you browse on this site, cookies collect data to enhance your experience and personalize the content and advertising you see.
Visit our Privacy Policy to learn more. By continuing to use the site, you agree to this use of cookies and data.
  • Em Portugal
  • Lista de países
  • Para 7 dias
  • Temperatura da água
  • Mapa do tempo
  • Widgets de tempo
  • user-avatar
    Iniciar Sessão

    Previsão horária em Rogozha

    Hoje, 22 Janeiro, Quarta-feira

    Tempo Temperatura Precipitação Vento Pressão Humidade
    00:00 -3°C° 0 mm 6 m/s 733 mmHg 77%
    01:00 -3°C° 0 mm 6 m/s 733 mmHg 80%
    02:00 -3°C° 0 mm 6 m/s 733 mmHg 82%
    03:00 -3°C° 0.1 mm 6 m/s 732 mmHg 84%
    04:00 -3°C° 0.1 mm 6 m/s 731 mmHg 86%
    05:00 -3°C° 0.1 mm 6 m/s 730 mmHg 89%
    06:00 -3°C° 0.3 mm 6 m/s 729 mmHg 87%
    07:00 -3°C° 0.3 mm 6 m/s 729 mmHg 85%
    08:00 -3°C° 0.3 mm 6 m/s 729 mmHg 83%
    09:00 -3°C° 0.4 mm 6 m/s 729 mmHg 81%
    10:00 -2°C° 0.4 mm 5 m/s 728 mmHg 79%
    11:00 -2°C° 0.4 mm 5 m/s 728 mmHg 77%
    12:00 -2°C° 0.1 mm 5 m/s 728 mmHg 75%
    13:00 -2°C° 0.1 mm 5 m/s 729 mmHg 73%
    14:00 -4°C° 0.1 mm 5 m/s 729 mmHg 71%
    15:00 -4°C° 0 mm 5 m/s 729 mmHg 73%
    16:00 -5°C° 0 mm 5 m/s 730 mmHg 75%
    17:00 -5°C° 0 mm 5 m/s 730 mmHg 77%
    18:00 -5°C° 0 mm 5 m/s 731 mmHg 79%
    19:00 -5°C° 0 mm 6 m/s 731 mmHg 81%
    20:00 -5°C° 0 mm 6 m/s 732 mmHg 83%
    21:00 -6°C° 0.1 mm 6 m/s 732 mmHg 82%
    22:00 -6°C° 0.1 mm 6 m/s 732 mmHg 81%
    23:00 -6°C° 0.1 mm 6 m/s 733 mmHg 80%

    Amanhã, 23 Janeiro, Quinta-feira

    Tempo Temperatura Precipitação Vento Pressão Humidade
    00:00 -8°C° 0 mm 6 m/s 734 mmHg 77%
    01:00 -8°C° 0 mm 6 m/s 735 mmHg 75%
    02:00 -8°C° 0 mm 6 m/s 735 mmHg 72%
    03:00 -9°C° 0 mm 6 m/s 736 mmHg 69%
    04:00 -9°C° 0 mm 6 m/s 736 mmHg 67%
    05:00 -9°C° 0 mm 6 m/s 737 mmHg 64%
    06:00 -9°C° 0 mm 6 m/s 737 mmHg 64%
    07:00 -9°C° 0 mm 6 m/s 738 mmHg 63%
    08:00 -9°C° 0 mm 6 m/s 739 mmHg 63%
    09:00 -9°C° 0 mm 6 m/s 739 mmHg 59%
    10:00 -8°C° 0 mm 6 m/s 739 mmHg 56%
    11:00 -8°C° 0 mm 6 m/s 739 mmHg 52%
    12:00 -6°C° 0 mm 6 m/s 739 mmHg 54%
    13:00 -6°C° 0 mm 6 m/s 740 mmHg 56%
    14:00 -6°C° 0 mm 6 m/s 740 mmHg 58%
    15:00 -6°C° 0 mm 6 m/s 740 mmHg 61%
    16:00 -6°C° 0 mm 5 m/s 740 mmHg 63%
    17:00 -7°C° 0 mm 4 m/s 741 mmHg 66%
    18:00 -6°C° 0 mm 3 m/s 741 mmHg 70%
    19:00 -6°C° 0 mm 3 m/s 741 mmHg 73%
    20:00 -6°C° 0 mm 2 m/s 741 mmHg 76%
    21:00 -5°C° 0 mm 2 m/s 741 mmHg 77%
    22:00 -6°C° 0 mm 3 m/s 741 mmHg 78%
    23:00 -6°C° 0 mm 3 m/s 741 mmHg 79%

    Depois de amanhã, 24 Janeiro, Sexta-feira

    Tempo Temperatura Precipitação Vento Pressão Humidade
    00:00 -5°C° 0 mm 3 m/s 740 mmHg 83%
    01:00 -5°C° 0 mm 3 m/s 739 mmHg 87%
    02:00 -5°C° 0 mm 4 m/s 739 mmHg 91%
    03:00 -4°C° 0 mm 4 m/s 738 mmHg 89%
    04:00 -5°C° 0 mm 5 m/s 737 mmHg 86%
    05:00 -4°C° 0 mm 5 m/s 736 mmHg 84%
    06:00 -4°C° 0.4 mm 5 m/s 736 mmHg 88%
    07:00 -4°C° 0.4 mm 5 m/s 735 mmHg 92%
    08:00 -2°C° 0.4 mm 4 m/s 734 mmHg 96%
    09:00 -1°C° 0.1 mm 4 m/s 734 mmHg 95%
    10:00 0°C° 0.1 mm 4 m/s 734 mmHg 93%
    11:00 +1°C° 0.1 mm 4 m/s 734 mmHg 92%
    12:00 +1°C° 0 mm 4 m/s 734 mmHg 93%
    13:00 +1°C° 0 mm 4 m/s 734 mmHg 93%
    14:00 +1°C° 0 mm 4 m/s 734 mmHg 94%
    15:00 +1°C° 0.1 mm 4 m/s 733 mmHg 94%
    16:00 +1°C° 0.1 mm 4 m/s 733 mmHg 94%
    17:00 +1°C° 0.1 mm 4 m/s 733 mmHg 94%
    18:00 +1°C° 0.4 mm 4 m/s 733 mmHg 94%
    19:00 +1°C° 0.4 mm 4 m/s 733 mmHg 95%
    20:00 +1°C° 0.4 mm 4 m/s 733 mmHg 96%
    21:00 +2°C° 0.2 mm 3 m/s 733 mmHg 96%
    22:00 +2°C° 0.2 mm 3 m/s 733 mmHg 96%
    23:00 +2°C° 0.2 mm 3 m/s 733 mmHg 97%

    25 Janeiro, Sábado

    Tempo Temperatura Precipitação Vento Pressão Humidade
    00:00 +2°C° 0.2 mm 3 m/s 732 mmHg 96%
    01:00 +1°C° 0.2 mm 4 m/s 732 mmHg 95%
    02:00 +1°C° 0.2 mm 4 m/s 732 mmHg 95%
    03:00 +1°C° 0 mm 4 m/s 732 mmHg 93%
    04:00 0°C° 0 mm 4 m/s 732 mmHg 92%
    05:00 0°C° 0 mm 4 m/s 732 mmHg 91%
    06:00 0°C° 0 mm 4 m/s 732 mmHg 91%
    07:00 0°C° 0 mm 4 m/s 732 mmHg 92%
    08:00 0°C° 0 mm 3 m/s 732 mmHg 92%
    09:00 0°C° 0 mm 4 m/s 732 mmHg 90%
    10:00 0°C° 0 mm 4 m/s 733 mmHg 88%
    11:00 0°C° 0 mm 4 m/s 733 mmHg 86%
    12:00 0°C° 0 mm 4 m/s 733 mmHg 83%
    13:00 0°C° 0 mm 4 m/s 733 mmHg 81%
    14:00 0°C° 0 mm 4 m/s 733 mmHg 78%
    15:00 -1°C° 0 mm 4 m/s 733 mmHg 78%
    16:00 -1°C° 0 mm 4 m/s 733 mmHg 78%
    17:00 -2°C° 0 mm 4 m/s 733 mmHg 78%
    18:00 -2°C° 0 mm 5 m/s 733 mmHg 78%
    19:00 -2°C° 0 mm 5 m/s 733 mmHg 77%
    20:00 -3°C° 0 mm 6 m/s 733 mmHg 76%
    21:00 -3°C° 0.1 mm 6 m/s 733 mmHg 75%
    22:00 -3°C° 0.1 mm 6 m/s 734 mmHg 75%
    23:00 -2°C° 0.1 mm 5 m/s 734 mmHg 75%

    26 Janeiro, Domingo

    Tempo Temperatura Precipitação Vento Pressão Humidade
    00:00 -4°C° 0 mm 5 m/s 735 mmHg 76%
    01:00 -4°C° 0 mm 5 m/s 735 mmHg 77%
    02:00 -5°C° 0 mm 5 m/s 736 mmHg 78%
    03:00 -4°C° 0 mm 4 m/s 736 mmHg 79%
    04:00 -4°C° 0 mm 4 m/s 737 mmHg 79%
    05:00 -4°C° 0 mm 4 m/s 737 mmHg 80%
    06:00 -4°C° 0 mm 4 m/s 738 mmHg 79%
    07:00 -5°C° 0 mm 4 m/s 738 mmHg 79%
    08:00 -5°C° 0 mm 4 m/s 739 mmHg 79%
    09:00 -4°C° 0 mm 4 m/s 740 mmHg 77%
    10:00 -4°C° 0 mm 4 m/s 740 mmHg 74%
    11:00 -2°C° 0 mm 3 m/s 741 mmHg 72%
    12:00 -2°C° 0 mm 3 m/s 741 mmHg 71%
    13:00 -2°C° 0 mm 3 m/s 742 mmHg 71%
    14:00 -1°C° 0 mm 2 m/s 742 mmHg 70%
    15:00 -2°C° 0 mm 2 m/s 742 mmHg 73%
    16:00 -2°C° 0 mm 2 m/s 742 mmHg 77%
    17:00 -2°C° 0 mm 2 m/s 742 mmHg 80%
    18:00 -2°C° 0 mm 2 m/s 743 mmHg 81%
    19:00 -2°C° 0 mm 2 m/s 743 mmHg 82%
    20:00 -2°C° 0 mm 2 m/s 743 mmHg 83%
    21:00 -2°C° 0 mm 3 m/s 743 mmHg 87%
    22:00 -2°C° 0 mm 3 m/s 743 mmHg 90%
    23:00 -4°C° 0 mm 3 m/s 743 mmHg 94%

    27 Janeiro, Segunda-feira

    Tempo Temperatura Precipitação Vento Pressão Humidade
    00:00 -2°C° 0 mm 3 m/s 743 mmHg 94%
    01:00 -2°C° 0 mm 3 m/s 742 mmHg 94%
    02:00 -2°C° 0 mm 3 m/s 742 mmHg 94%
    03:00 -1°C° 0 mm 3 m/s 742 mmHg 93%
    04:00 -1°C° 0 mm 3 m/s 742 mmHg 93%
    05:00 -1°C° 0 mm 3 m/s 742 mmHg 92%
    06:00 -1°C° 0.1 mm 3 m/s 742 mmHg 93%
    07:00 -1°C° 0.1 mm 3 m/s 742 mmHg 94%
    08:00 -2°C° 0.1 mm 4 m/s 741 mmHg 94%
    09:00 -1°C° 0.3 mm 3 m/s 741 mmHg 95%
    10:00 -1°C° 0.3 mm 3 m/s 741 mmHg 95%
    11:00 -1°C° 0.3 mm 3 m/s 741 mmHg 95%
    12:00 -1°C° 0.1 mm 3 m/s 740 mmHg 95%
    13:00 0°C° 0.1 mm 3 m/s 740 mmHg 96%
    14:00 0°C° 0.1 mm 3 m/s 739 mmHg 96%
    15:00 -1°C° 0.1 mm 4 m/s 739 mmHg 95%
    16:00 -1°C° 0.1 mm 4 m/s 739 mmHg 94%
    17:00 -1°C° 0.1 mm 4 m/s 738 mmHg 92%
    18:00 -1°C° 0 mm 4 m/s 738 mmHg 92%
    19:00 -1°C° 0 mm 5 m/s 738 mmHg 92%
    20:00 -2°C° 0 mm 5 m/s 737 mmHg 91%
    21:00 -2°C° 0.2 mm 5 m/s 737 mmHg 93%
    22:00 -2°C° 0.2 mm 5 m/s 737 mmHg 94%
    23:00 -1°C° 0.2 mm 4 m/s 737 mmHg 96%
    Mostrar mais